Regional Weather Roundup
Issued by NWS

Home | Current Version | Previous Version | Text Only | Print | Product List | Glossary On
Versions: 1 2 3 4 5 6 7 8 9 10 11 12 13 14 15 16 17 18 19 20 21 22 23 24 25 26 27 28 29 30 31 32 33 34 35 36 37 38 39 40 41 42 43 44 45 46 47 48 49 50
243
ASUS45 KABQ 270710
RWRNM
NEW MEXICO REGIONAL WEATHER ROUNDUP
NATIONAL WEATHER SERVICE ALBUQUERQUE NM
100 AM MDT TUE SEP 27 2016

NOTE: "FAIR" MEANS FEW OR NO CLOUDS BELOW 12,000 FEET AGL WITH NO
       SIGNIFICANT WEATHER OR OBSTRUCTIONS TO VISION.

      THIS PRODUCT IS RELEASED AS TWO VERSIONS.  ONE VERSION NEAR
      THE TOP OF THE HOUR CONTAINING PRELIMINARY DATA FROM ALBUQUERQUE
      AND OTHER STATIONS.  A FINAL VERSION WITH ADDITIONAL DATA IS
      ISSUED ABOUT 10 MINUTES AFTER THE HOUR.

NMZ501-503-504-510>518-270800-
NORTHWEST PLATEAU/NORTHCENTRAL MOUNTAINS

CITY           SKY/WX    TMP DP  RH WIND       PRES   REMARKS
FARMINGTON     FAIR      56  32  40 E8        30.31R
LOS ALAMOS     FAIR      51  29  43 SW7       30.43F
SANTA FE       FAIR      49  33  54 E7        30.39F
TAOS           FAIR      43  28  56 CALM      30.44S
ANGEL FIRE     FAIR      29  27  91 CALM      30.50S

$$
NMZ402-403-502-505>509-270800-
WESTCENTRAL MOUNTAINS/SOUTHWEST MOUNTAINS

CITY           SKY/WX    TMP DP  RH WIND       PRES   REMARKS
GALLUP         FAIR      45  25  45 E6        30.36S
SILVER CITY    CLOUDY    48  47  95 CALM      30.33F

$$
NMZ407-409-411-412-270800-
SOUTHERN DESERTS

CITY           SKY/WX    TMP DP  RH WIND       PRES   REMARKS
DEMING         CLOUDY    53  51  93 E7        30.30F
LAS CRUCES     MOCLDY    53  52  94 CALM      30.32F
HOLLOMAN AFB   LGT RAIN  55  53  96 NE5       30.31S
ALAMOGORDO     LGT RAIN  54  52  94 W6          N/A
T OR C         CLOUDY    53  51  93 S5        30.33F

$$
NMZ519>523-270800-
CENTRAL VALLEYS/CENTRAL HIGHLANDS

CITY           SKY/WX    TMP DP  RH WIND       PRES   REMARKS
ALBUQUERQUE    FAIR      58  34  40 CALM      30.35R
DOUBLE EAGLE   FAIR      48  33  55 CALM      30.37F
MORIARTY ARPT  FAIR      38  31  76 N5        30.41S WCI  34
CLINES CORNERS FAIR      45  34  65 SW8       30.43S
BELEN          CLOUDY    57  36  44 SE3       30.35S
SOCORRO        CLOUDY    56  44  64 NE7       30.33S

$$
NMZ524>526-539-540-270800-
SOUTHCENTRAL MOUNTAINS

CITY           SKY/WX    TMP DP  RH WIND       PRES   REMARKS
RUIDOSO        CLOUDY    50  39  66 S3        30.43F

$$
NMZ527>531-270800-
NORTHEAST HIGHLANDS/NORTHEAST PLAINS

CITY           SKY/WX    TMP DP  RH WIND       PRES   REMARKS
LAS VEGAS      FAIR      44  30  57 S7        30.41F
RATON          FAIR      43  34  70 N7        30.37F
CLAYTON        FAIR      51  38  60 W9        30.30F

$$
NMZ532>537-270800-
EASTCENTRAL PLAINS

CITY           SKY/WX    TMP DP  RH WIND       PRES   REMARKS
TUCUMCARI      FAIR      54  38  54 W8        30.30S
CANNON AFB     CLEAR     55  43  63 W2        30.33R
CLOVIS AIRPORT FAIR      52  43  71 SW6       30.33S

$$
NMZ028-029-538-270800-
SOUTHEAST PLAINS

CITY           SKY/WX    TMP DP  RH WIND       PRES   REMARKS
ROSWELL        FAIR      53  47  79 CALM      30.30S
ARTESIA        FAIR      54  54 100 S6        30.31S
CARLSBAD       CLOUDY    59  53  80 CALM      30.30S
HOBBS          LGT RAIN  55  55 100 W5        30.32S


$$




USA.gov is the U.S. government's official web portal to all federal, state and local government web resources and services.